Location: Caltech
(34.1382°N, 118.1253°W)
Time: 11:59:46
(UTC-08:00)

Saudisat 1A - Visible Passes

Search period start: 23 February 2018 00:00
Search period end: 05 March 2018 00:00
Orbit: 592 x 600 km, 64.6° (Epoch: 23 February)

Date Brightness Start Highest point End Pass type
(mag) Time Alt. Az. Time Alt. Az. Time Alt. Az.
23 Feb 9.1 18:28:27 10° NW 18:32:40 48° WSW 18:36:51 10° S visible
24 Feb 10.5 18:38:46 10° WNW 18:42:19 25° WSW 18:45:52 10° SSW visible
25 Feb 11.3 18:49:57 10° W 18:51:53 13° WSW 18:53:50 10° SW visible
